ECMWFFLT2_con_mucape_132.txt.gz
CAPE
706 581 612 733 1029 1366 1884 1931 2173 2136 2137 2203 2176 2178 2191 2198 2139 2061 1921 1738 1640 1408 1376 1370 1275 1032 1101 982 784 457 564 712 760 803 886 922 1060 1057 981 1126 1084 1538 1462 1672 1796 1744 1611 1449 1261 1256 1550 1439 1698 1081 1062 1161 1239 71 240 1127 1025 642
991 1016 911 784 804 1109 1616 1794 1993 2038 1866 2106 2129 2242 2217 2094 2158 2018 1892 1829 1735 1686 1276 1291 1312 1403 1252 1067 812 822 682 770 730 951 908 1011 1017 976 892 963 953 1136 1604 1812 1871 1756 1520 1458 1398 1483 1373 1623 1478 1168 1120 1334 812 898 966 1107 904 963
1373 1320 1079 942 864 809 1207 1312 1883 1977 1988 2097 2174 2312 2172 2173 2090 1977 1829 1555 2116 2245 1600 1698 1528 1584 1117 902 1063 917 834 762 816 928 1078 943 1174 887 661 931 830 1054 1260 1571 1742 1501 1600 1128 1152 1312 1452 1366 1011 1213 1397 1361 1424 988 980 985 855 1150
1576 1343 1108 855 750 724 982 911 1198 1852 1989 2117 2153 2205 2200 2127 2164 2165 2184 2114 1850 2387 2115 2058 1627 1601 1518 1417 1216 1284 1208 975 970 1051 1089 1092 905 1085 750 762 714 903 1055 727 866 1443 1669 1333 1367 1352 858 1031 1410 1643 1754 1078 995 641 1231 1269 891 1460
1588 1366 1193 851 544 539 605 613 809 1255 1838 1940 2229 2044 2029 2111 2474 2148 2160 2129 2323 2366 2014 1908 2176 1983 1474 1104 1160 1155 1208 1176 1108 970 1190 822 738 134 678 2 30 358 90 337 482 1222 1543 1320 1618 1395 1215 1366 1162 1204 987 1028 1190 793 960 1024 1202 1682
1671 1432 1198 755 439 630 770 537 623 1330 1607 1861 2103 1959 1920 2125 2097 2335 2573 2268 2376 2583 1954 1948 2015 2124 1942 1697 1360 1272 1012 1204 1237 1262 1214 887 827 539 6 3 0 0 1 36 272 477 1057 1386 1332 1662 1481 1288 1558 1559 1147 982 623 881 1479 1161 1547 1660
1568 1378 1140 648 614 689 719 614 700 869 1535 1538 1597 1729 1628 1774 2314 2400 2685 2640 2707 1964 1863 1840 1851 1757 1665 1892 1846 1660 1610 1686 1401 1359 893 1331 1365 672 700 0 6 208 213 10 13 240 507 493 761 897 1369 1122 1155 965 1071 736 756 1071 986 1085 1363 1731
1447 1300 1042 713 626 624 784 775 855 880 1147 1338 1317 1313 1242 1540 1872 2185 2267 2522 2158 1820 1774 1636 1768 1671 1682 1192 1323 1653 1574 1637 1564 1576 1027 991 1206 1166 1125 998 730 499 541 463 330 330 195 152 409 391 474 940 1038 894 930 1025 808 963 1349 1152 1040 1854
1415 1268 824 667 517 457 714 741 1056 942 1313 1600 1551 1492 1558 1560 1734 1838 2085 2110 2052 2353 1520 1698 1362 1526 1505 1368 1672 1699 1885 1734 1334 1115 1634 1098 1073 1627 1393 943 1338 1064 918 767 546 198 80 77 311 742 549 513 549 736 645 605 913 979 905 1554 1254 1183
1455 970 1005 804 454 623 766 771 1021 1038 1447 1278 1383 1530 1983 1782 1832 1616 1947 1966 1973 1923 2524 1567 1469 1612 1416 2000 2487 2384 2461 2200 2105 2099 2249 1826 1580 1575 1717 1614 1448 1276 754 893 580 368 336 121 52 153 350 649 812 825 930 918 1065 1150 866 1505 1880 1372
1007 968 1000 865 431 1169 867 846 879 877 1190 999 1368 1647 1471 1688 1614 1490 1540 1929 1342 1453 1901 2004 1794 1814 2272 2584 2640 2575 2457 2434 2580 2409 2532 2406 2354 2283 2327 2192 2073 1914 1420 1239 1657 1334 1021 808 529 140 220 381 763 799 1208 1060 1082 1118 952 1130 1548 1712
984 1247 1002 691 885 1166 1267 1120 848 1064 946 909 1887 1244 1349 1432 1463 1587 1580 1888 1936 1874 1873 2282 2436 1974 2034 2382 2650 2747 2621 2587 2772 2677 2910 2561 2437 2145 2310 2020 2320 2148 2215 2049 1758 1568 1443 1233 1189 607 551 536 695 1160 970 1242 1234 1394 1365 1308 1245 1596
1035 1159 1098 910 1475 990 1562 916 889 1418 516 985 1268 1187 1298 1507 1889 1875 2081 2184 2106 2056 2655 2929 2889 2603 2226 2412 2334 2458 2710 2573 2451 2588 2609 2539 2499 3032 2697 2580 2324 2338 2277 1716 1775 1748 1263 1020 1132 1128 1005 798 1152 1298 674 604 1125 1368 1205 1280 1422 1522
995 998 1264 1437 1720 1003 1436 1054 1026 1260 570 1576 1092 1256 1640 2049 2080 2088 2013 2230 2293 2401 2323 2621 2529 2547 2262 2570 2488 2444 2453 2623 2132 2331 2661 2513 2665 2605 2460 2212 2084 1989 2111 1596 1615 1699 1536 1328 1346 1260 1178 1141 1129 1998 1482 1720 2029 1681 1591 1305 1485 1698
1035 1003 1491 1507 1564 1260 1657 1239 1124 999 1198 1122 1240 1567 2025 2140 2146 2110 1973 2265 2391 2354 2175 2272 2481 2760 2328 2423 2502 2519 2383 2205 2226 2366 2322 2563 2669 2332 2245 2226 2130 2093 2074 1885 1478 1544 1472 1308 1237 902 1089 1295 1272 1337 1267 1127 1489 1288 1607 1519 1791 1691
1105 936 1800 1503 1612 1878 1759 1747 1361 1538 1482 1272 1626 1945 1998 2148 2092 2088 1978 2176 2189 2191 2159 2227 2138 2356 2454 2347 2183 2256 2368 2237 2086 1968 2178 2533 1871 1961 2005 2108 1960 1960 2045 1900 1588 1494 1552 1498 1448 1364 1520 1476 1594 1582 1929 2207 2310 1678 1658 1727 1699 1663
1234 1313 1669 1496 1941 2032 2148 1932 2020 1470 1442 1994 2144 2116 2304 2417 2150 2041 2015 2016 2356 2499 2388 2202 2153 2132 2239 2300 2203 2234 2067 2049 2046 2008 2600 1967 1943 1652 1578 1760 2155 1893 1834 1692 1494 1535 1749 1626 1781 1913 1736 1792 2002 2088 1828 1704 2012 1684 2222 2063 1868 1586
1543 1595 1734 1559 2108 1834 2026 2075 1936 1944 1893 2025 2266 2131 2204 2335 2276 2119 2278 2108 2230 2430 2428 2119 2086 2189 2485 2246 1924 1886 1871 2093 2021 1936 2265 2274 2019 1996 1924 2017 1860 1684 1536 1738 1741 1799 1905 1765 1739 1816 1751 1835 2001 2123 2045 2023 1904 1810 1626 1804 1722 1526
1848 1885 1798 1785 1953 1780 1951 2105 2099 2227 2024 2046 1933 2161 2472 2245 2191 2348 2216 2518 2317 2407 2369 2155 2163 2285 2065 1936 1956 1982 2116 2008 2056 2438 2340 2068 1869 1842 1877 1958 1908 1953 2059 1864 1750 1772 1852 1844 1705 1663 1704 1856 2057 2039 2007 1874 1802 1948 2271 1809 1539 1614
2016 1999 1823 1922 1155 1160 1483 1122 1122 1646 1335 1526 1910 2073 2322 1830 2249 2113 2126 2148 2264 2482 2035 2314 2000 1999 2286 2422 2136 2096 2426 1857 1876 1853 2125 1887 1622 1498 1871 1927 1840 1843 1887 1934 1821 1777 1651 1614 1627 1794 1729 1702 1757 1798 1963 2243 2170 2006 1938 2000 1782 1570
1336 1072 1173 968 903 857 816 915 1098 914 1137 1102 1473 1909 2439 2235 2160 2229 2241 2182 2185 2228 2083 1900 2040 2235 2127 2088 2108 2094 2031 2078 1923 1684 1817 1921 1982 1882 1854 1918 1964 2047 1814 1629 1646 1917 2040 1940 1814 1620 1524 1512 1538 1644 1659 1710 2047 2117 1989 1885 1775 1703
1182 1050 993 922 724 577 704 890 1049 1048 960 1054 1359 1430 1663 2240 2488 2222 2379 2390 2376 2412 2162 2283 2432 2364 2497 2317 2414 2262 2226 2332 2283 2289 2338 2081 1946 1888 1869 1860 1729 1752 1808 1665 1735 1742 1644 1588 1540 1463 1441 1056 958 1164 1599 1717 1816 1909 2042 2112 2009 1718
1224 1016 942 845 784 619 953 1052 1085 1027 1040 837 921 992 863 1394 2293 2574 2649 2408 2572 2531 2263 2139 2267 2290 2375 2382 2512 2226 2290 2548 2359 2359 2229 2139 1747 2080 2161 2125 1933 1799 1654 1570 1464 1503 1870 1670 1344 1428 1274 1149 1069 771 870 1502 1748 1932 2151 2052 1956 1843
1123 1034 1004 890 817 754 870 1028 1006 941 823 720 709 716 981 1395 2457 2619 2450 2466 2651 2686 2290 2378 2327 2111 2232 2364 2466 2349 2250 2095 2005 2391 2106 2036 1795 1859 2094 2259 1965 1930 1758 1408 1458 1608 1512 1684 1967 1581 1210 982 918 924 685 666 1422 1852 2133 2083 2064 1952
1165 1271 1232 946 1121 1085 1157 1115 1041 1068 741 643 675 734 728 1304 2486 2359 2499 2426 2623 2473 2162 2182 2032 1929 1568 2010 1910 1964 1956 2132 2137 2171 2238 1901 1726 1708 1482 1232 1377 1530 1596 1687 1594 1536 1742 1838 1674 1960 1327 1370 1000 723 654 877 684 756 2132 2193 2099 1766
1130 1260 1201 1012 995 988 1066 997 922 890 751 592 793 887 868 1329 2330 2425 2401 2459 2352 2330 2090 2082 1991 1785 1536 1563 1566 1690 1695 1814 1718 1995 1748 1628 1448 1468 1338 994 933 882 1119 1320 1598 1254 1272 1427 1916 2071 1991 1360 1238 1098 775 683 640 707 1883 1790 1926 1878
1322 1268 1229 1246 1140 1087 942 1031 1070 901 812 722 937 1051 1031 1560 2262 2531 2722 2626 2571 2529 1782 2058 1961 1699 1349 1525 1665 1714 1702 1561 1550 1499 1652 1585 1434 1320 1151 1012 1021 999 1080 1024 1045 1002 951 975 1037 1230 1573 1854 1604 1024 1134 891 757 576 571 1218 1694 1962
1285 1155 1276 1147 1097 1038 1027 1001 1105 880 888 1115 1022 1657 2174 2577 2743 2584 2646 2387 2370 2006 1925 1856 1940 1326 1517 1374 1334 1468 1534 1539 1486 1304 1186 1292 1429 1411 1464 1392 1275 1274 1289 1288 1242 1074 1025 912 905 828 860 1003 1156 1549 1573 923 954 644 424 396 456 826
1209 1116 1494 1185 1088 1060 1169 1040 1122 1220 1232 1181 1574 1310 2016 2026 2385 2288 2282 2322 2144 2012 1919 1957 1817 1405 1066 1098 1219 1418 1302 1257 1343 1239 972 1043 1168 1064 1126 1148 1139 1183 1172 1146 1196 1174 1030 914 844 827 860 774 819 805 899 1015 909 469 535 425 421 470
1111 1359 1556 1142 1451 1254 1252 1225 978 881 810 841 632 891 2087 2169 2239 2340 2191 2167 2017 1948 1995 1950 1664 1364 1371 988 1145 1041 932 912 1021 987 899 822 777 803 904 920 958 1018 1117 1069 1098 1086 1038 957 886 915 924 846 737 665 607 628 473 696 513 378 400 397
1448 1594 1332 1164 1315 1126 1257 974 899 835 672 871 865 701 1167 2180 2082 2030 2104 1914 1830 1783 1723 1705 2052 1544 946 924 823 615 577 489 606 802 820 757 681 640 724 766 859 798 810 860 969 1036 1016 958 989 962 844 718 524 421 366 385 382 234 406 405 341 359
1516 1365 1249 1172 1103 1382 1210 1012 724 650 444 380 453 493 859 1908 1843 1746 1790 1780 1742 1734 1682 1608 1043 1141 930 613 567 519 474 535 522 627 671 632 575 413 395 461 542 603 626 713 799 848 841 871 922 824 765 722 589 684 559 494 461 442 426 454 298 309
1355 1147 1203 1162 1242 1273 947 906 968 668 528 535 476 582 871 1802 1733 1811 1864 1505 1380 1350 1206 1173 853 742 570 318 344 435 476 486 529 531 470 443 354 341 401 407 413 459 518 598 656 713 757 808 886 831 748 720 710 702 758 511 497 479 492 557 545 329
1157 1103 1290 1019 970 830 663 756 682 648 646 521 660 508 922 1648 1479 1440 1404 1263 1129 775 733 672 721 503 259 223 228 278 296 340 325 316 282 306 313 292 386 327 333 466 603 701 763 865 906 858 708 727 618 405 589 680 828 882 523 463 416 500 500 390
985 1009 907 824 722 685 577 566 514 638 647 522 432 836 1011 1557 1476 1234 1044 836 812 730 645 476 404 280 214 202 188 206 161 172 248 202 184 213 210 189 292 394 475 587 652 736 749 863 822 796 760 574 580 674 389 554 568 511 594 723 659 513 460 380
863 871 854 794 648 440 429 588 634 603 719 555 532 736 971 1162 1063 1017 770 660 597 393 270 295 346 189 198 72 65 62 14 38 33 78 59 42 48 53 93 117 151 355 484 648 693 647 689 694 675 705 410 700 479 450 482 448 652 532 473 551 485 453
922 798 772 780 553 681 782 827 703 713 616 857 997 1329 1182 963 764 700 618 473 382 238 236 236 222 118 39 13 30 8 9 5 7 21 19 10 7 14 34 56 84 137 224 313 403 486 685 546 461 641 656 446 480 326 315 513 480 719 707 573 521 419

ECMWFFLT2_con_mucape_135.txt.gz
CAPE
1084 1248 1495 1736 1922 2036 2163 2165 2120 2154 2136 2168 2078 2099 2003 1940 1903 1839 1493 1328 1281 1112 1033 916 860 761 567 671 467 509 586 652 750 817 904 996 992 1002 946 1122 1130 1598 1281 1621 1811 1790 1551 1704 1752 1686 1711 1950 1968 1116 852 899 1162 783 957 785 778 741
862 1038 1283 1532 1816 1921 2055 2058 2000 1949 2038 2051 2058 2007 1932 1928 1766 1652 1550 1296 1116 1246 1009 904 837 952 916 734 502 585 725 730 790 853 957 1001 982 1018 975 961 1058 922 1493 1606 1771 1791 1673 1703 1757 1814 1861 1873 1596 1005 960 1063 1336 936 640 463 690 1082
548 687 1043 1352 1598 1804 1932 1920 1916 1910 1986 2136 2104 2053 1903 1905 1712 1595 1482 1270 1282 1118 996 922 1008 1263 1101 894 624 613 726 894 860 1038 1008 1070 1042 999 1009 1024 1156 1237 1353 1631 1545 1354 1240 1277 1147 1640 2187 1535 853 1199 1158 1292 1340 763 669 758 732 1474
284 451 783 1116 1404 1678 1787 1838 1791 1838 1914 1882 1973 1866 1826 1791 1668 1575 1444 1274 1526 1454 1010 969 1531 1674 1212 968 855 761 783 893 905 1066 1168 1049 1293 1082 1141 987 1083 1116 1117 924 461 804 1203 1635 1464 1201 902 570 515 514 1228 1279 1330 775 790 1209 970 1662
491 453 569 866 1219 1416 1619 1669 1666 1766 1793 1780 1876 1770 1789 1817 1645 1481 1262 1372 1501 1796 1824 1196 1452 1313 1009 858 874 886 803 709 823 900 1114 973 1009 879 1085 564 293 338 110 32 107 761 1324 1453 1615 1457 1242 1249 894 673 1076 1151 796 887 1034 1029 1194 1843
569 535 519 636 869 1162 1527 1530 1679 1703 1764 1815 1829 1712 1846 1885 1799 1633 1632 1637 1576 1906 1885 1528 1568 1200 964 1022 1006 1015 953 875 843 796 1026 848 708 210 187 82 0 0 0 0 0 0 677 959 1347 1497 1305 1313 1182 1172 1201 1187 896 778 1005 956 1452 1811
683 601 535 457 511 880 1231 1342 1526 1659 1779 1826 1806 1781 1843 1882 1966 1863 1712 1617 1893 1944 1724 1522 1433 1242 1252 1092 1022 936 938 956 966 823 839 650 762 618 641 598 268 0 0 234 0 0 0 48 832 1382 1350 1328 1219 1266 1256 1014 978 740 933 852 1564 2122
779 664 506 185 227 626 842 1078 1345 1585 1686 1834 1843 1795 1768 1858 2003 1897 2011 1742 2374 1844 1599 1495 1635 1572 1466 1182 1059 1065 975 1011 1097 1049 1093 732 677 983 730 672 625 497 390 487 485 16 0 0 138 897 1389 1258 1237 1276 1170 857 670 806 837 798 1466 2221
859 708 395 135 184 300 524 838 1056 1460 1632 1840 1751 1757 1676 1806 1920 1918 2210 2170 2257 1860 1309 1394 1323 1494 1573 1387 1294 1283 1220 1144 1214 1200 1214 1067 650 1011 953 732 571 250 544 482 489 19 1 0 0 342 1040 541 901 1145 1159 986 716 684 874 852 1300 1793
832 653 163 190 174 167 164 593 765 1114 1441 1497 1599 1558 1491 1727 1784 2010 2021 2070 1867 1618 2039 1077 1075 950 928 1236 1745 1669 1479 1382 1379 1242 1382 1120 692 1365 1724 1303 1367 1372 1197 803 862 1103 1028 930 792 152 112 87 65 208 746 902 765 691 948 949 930 1392
804 443 206 214 166 188 240 376 490 1084 1103 1122 1216 1339 1228 1430 1599 1690 1613 1370 1296 1130 1027 1834 965 1505 1642 1677 1566 1803 1712 1431 1470 1559 1785 1857 1424 1435 1432 1551 1840 1615 1490 1636 1483 1349 1199 1130 1049 943 852 782 501 1041 901 914 848 770 752 1172 1078 1103
762 341 194 156 312 530 369 437 504 927 900 899 1050 1100 1136 1239 1313 1271 1223 1226 1010 1017 1366 1759 1665 1380 1647 1836 1804 1867 1732 1500 1709 2240 2234 1965 1778 1643 1987 2020 2098 1819 1599 1695 1609 1484 1308 1282 1190 1002 906 844 840 820 676 650 718 759 934 1088 1210 1290
838 311 103 98 655 394 606 521 606 821 697 1048 1044 870 928 1151 1230 1199 1029 979 1305 1459 1758 1733 1607 1709 1892 2073 1738 1837 1612 1626 1654 1923 1985 1970 1863 2138 2066 2084 2003 1825 1718 1751 1654 1548 1291 1344 1390 1251 1022 1013 1022 930 908 848 708 768 887 953 1193 1242
615 141 141 608 722 349 392 387 675 752 732 1054 927 806 840 1162 1042 1080 1212 1144 1546 1616 1726 1818 1879 1592 1440 1785 1904 1851 1959 1972 1848 1636 1964 1805 1727 2157 2023 1939 1804 1794 2076 1813 1674 1580 1348 1181 1208 1287 1126 1164 1180 1196 1112 955 830 826 826 871 953 1371
492 440 638 684 648 397 237 559 592 626 717 909 766 1063 1224 1242 1256 1228 1568 1595 1665 1773 1748 1935 1940 2089 1977 1792 1937 1851 2004 1786 1777 1597 1911 1972 1948 1980 1907 1756 1780 1776 1680 1706 1688 1574 1513 1374 1175 1205 1268 1306 1323 1238 1066 1160 1112 1056 1006 920 1052 1074
639 724 568 663 815 467 374 572 536 878 607 759 1092 1192 1340 1319 1354 1385 1575 1740 1753 1840 1708 1651 1875 2165 2110 1726 1749 1683 1793 1733 1639 1610 1734 1668 1957 1631 1477 1506 1530 1554 1254 1270 1380 1496 1288 1416 1383 1428 1427 1388 1374 1371 1354 1196 1363 1408 1383 1209 1076 1097
761 720 636 874 906 680 714 831 806 500 748 1241 1240 1311 1449 1510 1482 1478 1663 1808 1726 1760 1729 1630 1696 2008 1615 1607 1602 1580 1598 1531 1341 1278 2130 1470 1569 1436 1266 1099 867 1232 1439 1353 1108 1135 1253 1404 1510 1494 1439 1554 1461 1558 1536 1744 1716 1664 1552 1427 1294 1263
856 674 735 1057 854 928 1229 967 616 533 1276 1471 1410 1418 1419 1354 1331 1332 1689 1718 1798 1819 1821 1715 1684 1469 1380 1584 1711 1671 1448 1450 1279 1409 1297 1267 1178 1255 1414 1362 1317 1322 1209 1225 1397 1540 1382 1400 1451 1550 1475 1376 1328 1474 1678 1793 1799 1754 1690 1622 1541 1489
807 596 838 1111 906 1162 1119 1032 984 1022 1184 1370 1242 1101 1071 1035 997 1030 1127 1561 1875 1684 1956 1615 1409 1633 1427 1336 1193 1328 1425 1193 1389 1484 1337 1554 1497 1521 1470 1333 1279 1204 1214 1419 1423 1526 1575 1543 1480 1399 1412 1423 1389 1326 1394 1543 1667 1657 1616 1592 1494 1426
704 620 954 1051 936 1038 997 1012 810 779 1124 1346 1228 947 1026 963 1034 984 907 1122 1586 1625 1721 1453 1594 1590 1407 1112 1259 1375 1687 1242 1215 1226 1492 1464 1176 1036 1193 1404 1487 1491 1440 1316 1392 1431 1396 1466 1547 1428 1332 1332 1352 1323 1257 1220 1231 1395 1537 1621 1679 1691
691 778 917 957 860 904 951 953 760 661 837 1190 1148 1074 1078 1134 937 940 757 862 1251 1652 1471 1644 1636 1408 1076 1632 1525 1202 1362 1472 1414 1190 1088 1240 1430 1387 1459 1374 1385 1415 1319 1185 1157 1060 1334 1447 1310 1187 1163 1120 1079 1026 1024 1098 1148 1223 1429 1567 1635 1720
792 812 892 819 779 801 880 912 902 787 565 1063 1020 1184 1026 1036 943 888 828 865 1296 1508 1703 1435 1574 1436 1360 1286 1290 1366 1616 1420 1282 1741 1647 1492 1447 1403 1253 1220 1235 1157 1126 1072 1085 1118 1154 1148 1128 1095 1054 1098 1014 996 854 683 884 1090 1206 1330 1566 1661
756 786 846 722 711 784 734 759 880 783 726 883 1004 1122 1131 932 874 801 765 1067 1281 1848 1452 1244 1828 1437 1462 1506 1501 1781 1812 1840 1780 1662 1478 1441 1313 1333 1386 1421 1402 1333 1284 1257 1173 1182 1202 1130 1094 1053 928 976 959 780 786 620 893 828 808 1334 1605 1645
776 792 788 661 651 645 789 744 801 687 854 980 1019 1129 1087 748 837 774 672 1343 1352 1886 1450 1277 1669 1708 1656 1802 1617 1632 1724 1574 1718 1422 1103 1365 1549 1507 1192 1097 946 880 1244 1278 1301 1210 1190 1114 1084 948 1010 886 909 938 821 642 627 608 457 843 1353 1711
771 805 768 674 607 551 718 734 825 855 913 966 936 1035 645 731 854 762 896 1375 1658 1892 1842 1503 1868 1568 1531 1761 1606 1484 1180 1102 1210 1727 1619 1173 1023 951 927 815 722 683 672 880 898 953 853 853 880 1004 915 937 956 684 533 692 669 524 700 627 468 452
857 776 760 735 565 484 753 706 844 928 782 710 748 723 581 748 792 685 1254 1628 1716 1813 1716 1568 1564 1547 1260 1254 1192 1071 994 1037 1070 1006 963 887 850 795 644 758 794 733 714 699 660 681 650 680 594 539 1020 994 857 724 653 629 400 610 447 384 318 512
864 815 880 736 632 649 894 776 919 852 565 645 529 666 620 690 907 983 1603 1876 1612 1826 1562 1478 1322 1244 1168 1078 1052 970 902 819 842 934 901 835 705 850 929 886 813 673 677 754 763 638 660 592 566 523 506 590 777 778 698 497 438 413 513 421 379 164
954 936 876 789 723 681 845 919 892 718 566 642 544 638 549 794 1224 1459 1669 1887 1585 1505 1436 1174 1265 1110 1058 970 792 825 879 862 779 686 621 487 502 503 598 645 667 742 713 689 671 697 646 636 571 453 421 418 456 422 592 568 470 471 460 311 232 122
1118 1120 1012 849 905 871 956 944 835 648 678 797 895 821 746 1050 1302 1347 1347 1424 1436 1337 1152 1215 1271 956 796 710 595 581 594 606 563 419 404 371 370 376 368 377 506 435 433 335 558 655 620 603 520 459 491 483 404 346 101 127 316 407 237 247 244 133
1243 1306 1129 984 899 930 877 825 737 644 658 688 811 876 909 993 1138 934 801 905 1284 1194 1132 1103 935 804 731 597 596 549 504 435 375 310 267 240 244 184 132 154 215 202 249 287 366 453 475 512 553 574 518 460 350 331 46 42 68 236 264 208 243 209
1258 1313 1164 1104 964 923 876 837 830 654 778 769 790 758 780 770 773 663 580 1128 1226 1255 1102 1255 930 764 660 530 452 448 430 382 292 207 120 108 91 89 62 58 76 106 166 223 267 329 371 406 498 487 449 422 372 314 277 242 211 42 246 288 258 155
1259 1240 1274 1110 1024 1029 897 871 814 652 901 874 665 611 486 511 848 790 736 812 880 1031 1004 858 703 579 466 368 304 164 43 28 55 59 62 45 38 25 20 26 17 30 203 249 324 359 377 435 366 234 163 242 332 276 254 252 267 248 236 191 201 178
1287 1275 1205 1084 1030 974 1026 874 821 774 768 724 522 599 653 675 910 934 775 647 864 979 919 756 584 442 347 283 259 176 9 4 2 3 6 0 0 1 4 6 14 29 209 292 351 446 398 362 353 315 173 242 265 270 286 251 114 188 214 215 195 192
1337 1277 1168 1106 1045 974 1105 870 787 727 734 715 515 622 534 556 631 560 742 839 924 823 733 590 381 316 280 247 110 1 0 0 0 0 0 0 0 0 0 0 0 1 15 92 265 327 318 371 314 223 230 242 284 158 229 182 154 238 235 202 201 139
1354 1198 1166 1047 1067 1067 1076 807 633 490 497 513 399 458 495 459 438 602 751 920 894 766 573 366 303 231 0 0 0 0 0 0 0 0 0 0 0 0 0 0 0 0 0 1 8 95 252 294 192 205 189 281 199 48 2 18 145 216 217 203 173 216
1328 1126 1091 992 1151 1219 1025 651 394 366 371 143 327 320 441 490 482 583 780 883 918 782 519 365 320 244 0 0 0 0 0 0 0 0 0 0 0 0 0 0 0 0 0 0 12 101 180 163 127 150 192 156 126 6 0 1 68 187 212 238 203 190
1217 1091 1099 1063 1263 1156 742 408 411 396 394 43 134 434 539 532 546 690 781 879 858 572 293 232 223 11 0 0 0 0 0 1 0 0 0 0 1 6 7 2 0 0 0 2 6 52 99 18 45 96 133 111 100 90 10 0 0 39 198 256 239 220

ECMWFFLT2_con_mucape_138.txt.gz
CAPE
1640 1809 1859 1925 1978 2008 2146 2280 2195 2185 2154 2118 1917 1889 1774 1759 1602 1497 1322 1194 965 815 634 602 589 508 640 659 571 586 754 854 988 1102 1110 1113 1069 1167 1043 1263 1349 1570 1368 1728 1880 1897 1882 1995 2122 2172 2161 2242 2258 772 940 1110 738 706 991 1013 1000 618
1600 1748 1817 1848 1893 1909 2073 2020 1972 2019 2042 1770 1863 1780 1603 1689 1586 1295 1298 1014 864 992 706 649 526 782 706 615 515 652 726 907 1013 1031 1131 1190 1193 1094 1090 1218 1312 1089 1582 1560 1757 1454 1188 1162 1573 1887 2276 2474 1694 872 954 1172 802 717 958 760 849 766
1411 1621 1743 1785 1848 1878 1925 1847 1900 1899 1859 1916 1801 1687 1538 1572 1271 1230 1044 920 959 897 788 714 778 945 868 780 641 754 883 925 998 1059 1131 1172 1232 1163 1183 1156 1380 1460 1441 1566 1416 1072 816 757 708 1305 1349 766 476 728 573 1079 1139 763 813 580 658 1142
1262 1454 1608 1726 1788 1823 1755 1772 1777 1812 1810 1744 1631 1584 1602 1418 1305 1139 968 927 908 919 812 734 1447 1460 1264 771 543 777 898 1008 993 1165 1155 1283 1346 1363 1268 1283 1336 1405 1213 884 421 238 569 764 1262 1321 1300 994 571 341 170 931 1075 790 662 947 584 1540
1128 1322 1442 1624 1741 1719 1674 1684 1711 1738 1710 1668 1580 1595 1609 1397 1311 1162 1006 936 1018 925 905 1086 1312 1407 1024 614 664 707 740 903 796 1034 1154 1096 880 884 1106 778 208 186 60 14 18 761 1034 1341 1494 1525 1550 1556 1248 1177 906 906 1084 869 778 1033 751 1818
1003 1206 1326 1518 1644 1611 1643 1605 1629 1664 1637 1618 1487 1546 1605 1400 1335 1197 1045 1029 1292 1241 1121 1049 1409 1376 896 678 686 701 701 756 714 791 901 984 820 638 383 161 48 0 0 0 0 0 47 746 848 781 882 1175 1336 1246 1119 992 1094 849 831 936 851 2016
878 1107 1237 1440 1475 1472 1464 1476 1512 1582 1564 1573 1449 1472 1639 1492 1311 1257 974 1190 1463 1598 1494 1519 1260 1454 968 720 646 771 750 651 672 620 693 857 627 458 579 466 394 402 388 464 219 0 0 0 103 429 715 894 1067 1306 1242 1137 1138 993 775 813 996 2301
680 921 1088 1278 1380 1407 1368 1395 1436 1472 1534 1594 1454 1475 1661 1614 1413 1311 1187 1276 1606 1625 1746 1766 1363 1427 1057 978 798 752 790 774 759 750 846 709 694 790 825 767 668 491 444 485 494 488 161 0 0 4 357 694 917 1171 1306 1216 1087 834 810 827 1002 2258
440 575 859 1099 1263 1330 1311 1353 1444 1518 1469 1703 1542 1457 1608 1764 1684 1390 1498 1329 1903 1734 1781 1645 1454 1344 1108 1139 922 900 816 797 881 952 960 1040 890 602 639 744 954 878 670 678 507 463 243 431 714 880 854 668 777 982 1193 1250 1176 953 770 792 856 1818
396 392 580 942 1087 1245 1287 1355 1460 1515 1472 1740 1610 1420 1694 1782 1870 1769 1707 1632 1768 1900 1747 1583 1374 1307 1254 1260 1145 1082 1067 1030 983 1030 1132 1084 1120 952 723 1265 1340 1305 1260 1232 1170 1125 1221 1227 1098 995 907 796 733 662 836 904 1121 1086 877 733 768 1397
481 452 486 723 887 1122 1305 1223 1554 1452 1466 1738 1589 1574 1727 1812 1932 1870 1905 1918 1878 2059 1719 1547 1372 1361 1376 1440 1354 1380 1285 1219 1241 1360 1347 1405 1075 1025 1240 1405 1789 1683 1618 1521 1456 1410 1353 1297 1243 1062 1073 1035 857 744 708 691 700 827 832 737 707 885
575 556 390 443 697 881 1188 1210 1514 1356 1579 1700 1562 1731 1712 1755 1886 1923 1824 2017 2065 1830 1167 1390 1141 1057 897 1031 1366 1518 1371 1290 1519 1755 1810 1727 1578 1811 1832 1687 1623 1601 1590 1536 1544 1498 1443 1372 1292 1081 1017 1098 1120 1027 942 801 806 763 745 769 811 831
705 633 416 158 488 746 906 1049 1360 1438 1553 1696 1526 1734 1699 1652 1769 1872 1809 1798 1630 1338 1233 1279 1104 1288 1529 1491 1428 1454 1481 1294 1391 1544 1762 1619 1551 1510 1606 1633 1513 1504 1492 1551 1522 1484 1432 1351 1255 1265 1191 1111 1077 1064 974 969 1036 1048 1009 902 846 989
802 831 479 186 495 588 732 852 833 1186 1443 1569 1610 1558 1559 1589 1675 1597 1578 1399 1112 1185 1340 1332 1390 1472 1656 1627 1535 1565 1522 1520 1580 1427 1413 1563 1599 1735 1726 1582 1456 1368 1612 1373 1383 1401 1392 1330 1282 1223 1284 1346 1329 1272 1271 1267 1257 1169 1055 1047 1036 1006
898 648 378 218 471 462 637 626 713 969 1228 1289 1341 1367 1332 1441 1411 1398 1297 1147 1250 1346 1440 1487 1436 1276 1348 1534 1545 1638 1678 1566 1529 1451 1568 1756 1658 1598 1471 1280 1230 1238 1269 1142 1150 1076 1034 1032 1043 1099 1230 1277 1350 1343 1342 1366 1380 1374 1336 1284 1275 1359
815 470 345 297 419 468 473 541 797 1038 1013 1005 1088 1177 1240 1312 1294 1250 1076 1178 1444 1431 1503 1559 1693 1741 1700 1566 1508 1526 1482 1674 1687 1495 1327 1384 1508 1571 1082 995 913 990 981 884 935 809 841 1107 1182 1181 1252 1270 1251 1300 1276 1262 1315 1404 1475 1511 1554 1558
700 532 376 487 501 491 466 466 714 788 893 949 1001 943 1068 1084 1171 1172 1277 1341 1528 1532 1399 1356 1536 1784 1616 1469 1368 1379 1452 1514 1593 1359 1263 1354 1265 1245 1116 1091 1078 948 949 1024 834 835 995 1062 1119 1169 1192 1229 1228 1233 1164 1170 1138 1351 1472 1577 1622 1616
809 578 459 467 461 510 577 552 590 764 802 955 1011 1059 1077 1066 1104 1250 1370 1445 1479 1570 1420 1410 1355 1618 1632 1292 1333 1373 1369 1387 1297 1251 1219 1111 1011 965 977 1031 1089 1054 1034 961 814 927 1030 1131 1126 1062 1069 1139 1196 1169 1122 1140 1224 1249 1366 1476 1522 1536
674 628 426 565 580 546 544 546 789 812 865 1018 1107 1141 1177 1136 1110 1111 1176 1271 1334 1480 1626 1494 1482 1562 1430 1254 1281 1269 1283 1345 1308 1158 1044 1100 1096 1108 1147 1040 964 1082 1047 991 1013 1152 1144 1019 999 1025 1092 1104 1031 985 1006 1024 1048 1071 1099 1164 1249 1339
695 656 487 447 599 466 466 666 798 861 898 978 1042 1108 1153 1103 1090 1096 1133 1178 1281 1392 1501 1499 1417 1327 1254 1095 1057 1117 1234 1225 1142 1080 1102 1198 1252 1097 1042 1028 1062 1019 978 919 851 820 804 836 836 818 829 792 803 824 840 851 873 877 842 906 1021 1124
720 651 517 558 604 562 477 592 742 827 929 1025 1046 1018 1055 1089 1066 1044 1074 1026 972 1229 1442 1455 1357 1324 1270 1411 1106 1021 1095 1148 1127 1021 834 952 1132 1137 1096 1036 887 877 880 828 811 842 885 766 689 600 548 599 611 683 731 694 626 576 708 702 738 920
777 632 542 688 656 618 541 524 639 727 772 874 931 977 1038 1015 1009 1038 929 909 828 1294 1464 1393 1364 1352 1305 1091 1065 927 1182 1337 1303 1444 1322 1307 1251 1196 1131 1054 953 802 727 917 878 887 823 551 618 606 516 528 544 498 488 500 497 655 584 582 695 851
798 632 743 744 764 781 622 572 559 638 660 812 768 810 875 905 956 1027 908 819 831 1373 1426 1365 1383 1313 1181 1049 1049 1034 1377 1448 1508 1464 1394 1246 1164 993 880 812 759 683 678 822 885 847 644 586 617 557 460 515 436 330 161 374 575 375 337 248 564 698
799 899 822 786 812 862 890 684 592 641 709 866 920 920 938 1041 995 937 811 732 942 1379 1442 1382 1408 1246 1171 1080 1180 1402 1471 1568 1498 1128 1077 1092 937 838 722 723 673 531 668 502 563 690 564 473 532 467 393 510 516 549 385 26 276 250 140 405 56 129
698 918 974 852 850 878 859 874 812 667 687 781 814 976 964 980 949 830 714 848 1268 1374 1430 1312 1442 1340 1267 1228 1360 1457 1331 1148 1412 1213 1148 859 834 749 680 591 446 348 396 382 399 419 402 417 453 477 498 619 400 292 230 333 402 211 182 163 134 97
561 830 977 991 889 840 865 838 870 740 664 690 765 986 998 922 786 746 692 1060 1276 1402 1512 1290 1455 1511 1544 1383 1416 1174 1066 936 830 827 813 736 704 652 576 630 403 410 438 472 426 350 350 1 340 342 409 554 448 390 373 411 447 480 111 114 122 29
656 719 885 968 942 860 876 878 853 720 636 718 840 935 958 772 690 631 897 1236 1280 1551 1546 1454 1476 1488 1286 1380 1179 980 894 838 783 776 683 689 637 564 430 326 272 238 285 344 313 330 189 40 0 0 67 303 353 402 481 426 486 412 337 117 22 74
647 663 818 906 941 856 820 804 772 725 727 832 812 893 826 668 690 708 1084 1346 1477 1524 1529 1459 1424 1291 1118 987 944 908 852 785 710 704 690 619 480 373 281 261 207 165 45 79 119 205 154 9 98 11 15 262 265 247 254 278 345 362 318 339 290 44
641 664 752 828 870 796 737 743 739 778 859 950 846 836 556 632 688 885 1265 1414 1482 1539 1470 1410 1261 1118 1021 954 919 800 670 614 587 536 489 384 220 186 190 157 47 28 43 14 43 156 62 25 1 139 258 163 0 60 0 56 54 184 238 311 299 210
705 726 748 792 833 697 608 668 688 838 872 794 723 625 540 707 788 1133 1286 1417 1433 1496 1455 1252 932 910 828 718 608 532 481 446 342 252 156 107 0 0 0 0 2 7 18 107 131 159 185 199 208 216 211 18 0 0 0 0 107 223 270 250 268 263
770 680 761 804 808 693 616 687 785 881 776 625 557 579 563 852 1026 1317 1464 1339 1293 1242 1147 998 847 768 726 634 595 521 469 353 281 220 169 0 0 0 0 0 0 0 0 84 156 184 133 161 168 148 132 96 94 104 127 126 154 151 148 172 205 242
915 745 728 760 785 750 664 812 896 928 679 598 598 615 804 1027 1192 1346 1480 1019 983 1026 1004 943 913 899 834 707 612 482 340 35 0 0 0 0 0 0 0 0 0 0 0 0 0 70 126 190 154 126 104 86 157 163 151 162 105 74 117 145 176 205
907 826 795 739 788 747 704 876 980 857 676 732 674 743 967 1085 1257 1288 914 676 966 1011 1008 969 926 852 777 621 458 283 0 0 0 0 0 0 0 0 0 0 0 0 0 0 18 70 99 132 89 63 84 137 118 86 74 71 37 63 106 123 146 186
990 902 892 887 828 838 914 1004 937 746 650 725 761 788 857 966 1177 843 775 819 1004 970 929 851 766 683 610 484 325 62 0 0 0 0 0 0 0 0 0 0 0 0 0 5 36 26 19 28 26 27 20 29 47 43 33 14 3 38 45 90 148 148
1123 1026 993 1060 902 912 1032 946 828 632 683 741 800 802 832 878 790 646 767 888 895 878 814 735 702 637 571 375 211 0 0 0 0 0 0 0 0 0 0 0 0 0 0 5 10 6 3 4 5 8 16 19 33 27 36 15 3 4 29 35 40 67
1258 1170 1172 1189 1007 972 935 928 824 694 875 903 744 684 700 686 674 662 710 816 782 768 741 725 676 578 479 314 0 0 0 0 0 0 0 0 0 0 0 0 0 0 1 2 4 3 3 3 5 5 8 8 7 6 3 4 3 3 3 9 11 17
1262 1207 1265 1211 1152 1071 977 958 865 711 820 911 606 512 556 766 749 706 615 696 729 729 724 707 662 613 480 322 200 0 0 0 0 0 0 0 0 1 4 3 0 1 2 2 3 6 4 4 5 4 4 3 0 0 1 1 0 0 2 2 2 5

ECMWFFLT2_con_mucape_141.txt.gz
CAPE
1443 1609 1798 1949 2005 2000 2226 2324 2282 2272 2136 2091 1874 1866 1718 1578 1484 1471 1232 1173 878 789 736 591 526 592 641 1001 936 891 789 955 1113 1180 1028 1045 1078 1170 1134 1274 1204 1636 1302 1680 1790 1767 1267 1258 1450 1923 2226 2465 1472 829 976 812 627 888 842 847 888 619
1502 1782 1908 1976 1899 1948 2163 2157 2056 2079 2049 1823 1809 1631 1361 1481 1260 1191 1135 868 718 743 574 497 286 667 653 785 648 746 793 946 1066 1186 1121 1082 1136 1123 1066 1264 1255 1230 1389 1534 1637 915 173 365 835 1538 2008 1474 322 623 680 982 735 632 692 766 872 492
1610 1797 1936 1931 1889 1951 1979 1921 1953 1924 1846 1839 1643 1646 1422 1373 1184 1106 845 742 738 561 75 271 520 687 659 618 596 671 818 883 1018 1082 1137 1142 1210 1160 1156 1208 1330 1397 1434 1420 772 0 0 22 281 896 1063 1070 925 200 81 997 898 666 670 711 612 666
1672 1770 1868 1895 1865 1873 1786 1789 1827 1772 1708 1561 1524 1424 1383 1248 1147 982 794 731 726 621 548 220 1179 726 675 628 610 797 894 983 1000 1077 1171 1297 1100 1167 1449 1315 1280 1130 718 314 0 0 0 0 516 996 1216 1288 1278 1178 954 662 821 856 680 867 689 870
1618 1621 1794 1829 1767 1738 1729 1736 1728 1702 1595 1488 1421 1388 1310 1124 1069 892 777 766 729 711 626 326 1265 898 680 537 486 670 784 843 881 938 1137 932 803 529 451 274 4 9 0 0 0 99 159 0 549 975 1114 1046 984 1067 1169 1170 680 747 790 656 903 1046
1512 1568 1719 1732 1701 1741 1717 1676 1679 1683 1528 1413 1310 1300 1186 1033 1002 856 786 750 796 718 854 1041 1281 1172 825 288 322 562 593 726 664 738 848 776 579 474 7 0 0 0 0 0 0 0 38 162 658 722 318 41 172 337 470 885 1162 792 836 701 896 1272
1360 1468 1618 1653 1661 1544 1627 1650 1660 1638 1514 1403 1191 1236 1174 977 943 858 826 856 842 895 932 1104 1281 1250 708 399 391 532 508 536 542 503 478 491 356 153 192 183 201 179 0 0 137 0 0 0 0 0 0 697 652 490 466 561 875 1099 1026 945 786 1398
1159 1303 1475 1594 1555 1477 1538 1549 1602 1448 1372 1459 1152 1272 1257 1020 935 959 911 976 1133 1030 1073 1023 1166 1369 1044 468 385 511 565 515 474 463 406 419 441 511 508 501 608 782 802 721 589 538 361 342 180 703 841 805 742 652 497 580 731 931 1114 1048 762 1108
924 1148 1396 1528 1423 1431 1402 1412 1434 1380 1328 1418 1066 1154 1225 1062 1005 1024 993 1097 1376 1377 1260 1458 1231 1233 1220 908 615 602 614 601 606 714 744 799 786 677 473 510 1017 1087 943 882 1003 989 970 1095 1117 1077 961 923 869 782 671 614 783 938 1064 1106 969 896
790 1056 1295 1398 1267 1329 1251 1247 1309 1402 1288 1314 1089 999 1183 1221 1122 1102 1032 1163 1399 1520 1573 1616 1591 1277 1260 1058 901 885 883 832 819 869 983 1055 1117 1069 1014 1046 1116 1393 1354 1389 1330 1316 1278 1253 1224 1160 1006 938 984 975 930 804 720 665 814 1006 994 870
736 934 1159 1212 1186 1118 1074 1121 1213 1294 1180 1303 1184 1085 1314 1418 1360 1229 1083 1128 1351 1521 1659 1648 1544 1364 1287 1089 1075 1022 1060 1059 1027 1033 1141 1275 1166 960 1036 1175 1489 1552 1461 1409 1398 1365 1336 1292 1252 1182 1126 1089 1103 1078 1008 941 806 739 711 625 594 686
730 837 1001 1110 1100 1031 959 990 1089 1094 1047 1282 1404 1203 1303 1452 1539 1534 1327 1330 1340 1573 1780 1765 1560 1410 1240 1144 1174 1197 1192 1129 1082 1216 1465 1461 1398 1349 1485 1452 1507 1487 1275 1320 1259 1244 1219 1230 1244 1175 1117 1089 1150 1204 1207 1105 1010 963 938 935 920 863
672 810 939 1088 1093 1029 1092 1039 1114 1139 1170 1337 1525 1388 1264 1410 1547 1697 1749 1653 1652 1708 1698 1346 1427 1460 1309 1230 1182 1304 1222 1084 1321 1490 1449 1400 1312 1258 1368 1306 1093 1128 1210 1132 1055 1031 1001 1018 1030 1032 985 1011 1086 1162 1187 1189 1174 1147 1170 1170 1122 1040
600 678 848 964 1021 1078 1156 1155 1164 1160 1244 1370 1514 1455 1304 1452 1597 1714 1782 1736 1770 1896 1363 1063 1055 1152 1088 936 1205 1298 1236 1202 1269 1195 1270 1281 1374 1280 1104 934 976 918 1175 902 771 728 691 646 788 921 984 1009 1039 1076 1144 1165 1192 1214 1230 1240 1230 1224
404 448 593 787 921 1039 1109 1081 1160 1171 1171 1254 1406 1390 1374 1554 1653 1681 1737 1701 1699 1629 1256 1045 1043 1090 1161 1278 1283 1203 1168 1215 1255 1180 1108 1411 1325 1200 1038 837 718 753 650 597 629 691 666 710 814 904 916 932 970 979 1014 1083 1152 1166 1149 1141 1126 1152
432 360 349 446 698 874 977 963 1002 1190 1158 1218 1325 1334 1422 1611 1612 1543 1589 1608 1432 1108 1083 1185 1263 1340 1339 1302 1241 1240 1280 1306 1382 1301 1099 1094 1102 1210 843 813 808 835 850 845 855 794 701 810 888 928 910 888 885 920 962 986 985 967 986 995 1054 1091
494 456 373 323 454 694 773 808 902 1116 1183 1272 1416 1439 1464 1577 1547 1478 1466 1402 1160 1094 1153 1202 1193 1176 1248 1266 1240 1238 1171 1092 1233 1261 1106 1025 1033 901 870 754 801 826 835 884 904 852 799 872 894 854 842 806 835 851 879 850 841 854 878 936 995 1031
494 543 627 439 208 510 620 757 839 864 1000 1159 1291 1482 1516 1477 1452 1427 1347 1253 1114 1141 1100 1127 1292 1335 1199 1145 1157 1144 1045 1066 1158 1070 954 944 854 844 860 903 857 844 882 901 908 864 837 817 783 701 721 691 708 676 684 722 730 732 719 714 729 718
558 696 799 501 341 457 568 710 716 675 770 974 1084 1178 1241 1231 1302 1324 1233 1112 1220 1237 1132 1019 1091 1324 1171 1039 1058 1081 985 974 1071 1029 922 823 889 912 920 870 864 868 855 845 820 734 728 741 641 575 490 420 363 413 432 488 539 563 514 518 518 507
683 769 668 365 409 456 495 633 593 575 771 952 988 1021 1062 1154 1207 1215 1125 1054 1134 1276 1218 1140 1164 1282 1166 1040 1077 1073 921 1018 1032 1011 896 857 904 869 899 888 896 851 811 803 790 738 690 614 471 415 340 131 10 2 16 33 122 402 388 375 398 457
762 696 587 440 354 435 438 501 504 588 805 927 938 915 864 970 1004 1031 1032 1053 1182 1228 1239 1297 1260 1225 1090 997 970 988 879 965 951 879 858 746 914 954 950 945 882 875 818 727 622 688 606 396 359 264 2 0 1 0 1 0 0 303 0 0 205 235
893 803 671 528 427 378 469 466 502 613 724 764 817 837 800 758 798 868 913 1048 1109 1208 1274 1337 1304 1200 1106 981 716 797 946 1004 963 940 1036 1126 1071 993 873 829 748 720 640 578 721 671 381 259 357 264 60 13 0 0 0 0 1 0 0 0 0 3
1056 751 772 659 643 655 629 604 535 612 691 796 845 860 786 815 836 870 895 938 1020 1150 1277 1324 1255 1143 1128 936 756 766 1122 1145 1106 1170 1162 1064 905 834 740 661 603 565 516 432 557 665 391 310 337 278 0 0 0 0 0 136 419 119 0 0 0 0
979 919 877 733 611 631 641 665 640 662 722 800 867 878 845 852 869 856 849 889 839 739 1198 1315 1230 1205 1133 882 844 1117 1158 1233 1115 911 780 718 702 603 618 626 576 485 376 274 218 328 334 280 302 278 36 54 61 134 0 0 0 0 0 0 0 0
984 959 803 760 706 760 736 666 633 692 694 673 709 781 802 821 854 840 840 825 721 876 1334 1306 1242 1252 1088 937 1052 1232 1218 1134 912 810 738 615 518 514 503 473 441 336 273 220 217 252 232 235 240 245 312 188 44 0 0 34 84 9 0 0 0 0
802 765 800 820 658 704 609 575 596 608 627 640 628 741 771 790 740 768 851 789 634 1064 1243 1255 1262 1207 1080 1069 1145 1235 1105 916 857 798 706 590 522 433 371 328 293 256 223 248 187 162 151 0 0 0 305 363 280 217 238 228 156 117 10 0 0 0
669 695 819 880 726 597 535 498 547 550 571 590 598 642 685 728 742 809 832 671 768 1217 1207 1270 1197 1207 1215 1275 1249 1123 972 851 689 615 558 512 511 498 444 359 284 206 156 168 3 59 54 55 0 110 94 225 238 289 268 231 210 181 137 11 0 8
662 687 850 877 789 642 626 591 564 532 550 587 574 678 752 815 876 908 746 678 1111 1195 1205 1301 1217 1302 1347 1240 1157 978 757 638 564 574 551 530 470 390 352 269 176 144 80 5 10 37 80 115 104 148 164 194 187 147 201 191 210 225 182 179 129 11
640 693 844 875 759 760 715 630 575 562 581 608 539 645 798 907 916 833 624 947 1141 1248 1412 1368 1232 1292 1084 1059 917 800 691 671 617 565 512 462 380 284 178 144 70 0 0 0 3 106 113 123 121 117 91 122 2 71 0 72 134 162 212 221 188 85
683 737 862 853 786 805 757 731 730 709 671 680 694 659 798 985 873 675 728 1105 1279 1384 1398 1315 1288 1197 1053 913 827 752 711 636 513 427 357 268 106 0 0 0 0 0 0 0 0 57 102 101 103 99 81 70 74 85 102 119 133 138 112 145 159 153
757 772 818 813 811 834 818 828 844 894 946 928 814 679 855 976 717 579 983 1283 1347 1356 1295 1272 1137 1069 961 896 817 730 570 461 429 381 292 215 169 0 0 0 0 0 0 0 0 99 110 84 79 70 94 96 66 54 47 19 11 15 25 72 122 177
821 783 855 922 895 888 875 894 890 918 926 846 728 761 875 868 652 715 1088 1379 1333 1238 1253 1199 1126 1064 923 771 641 567 524 490 434 309 0 0 0 0 0 0 0 0 0 0 60 62 54 32 10 17 82 55 30 17 19 31 21 12 15 35 54 95
897 812 832 954 976 981 985 981 933 900 848 791 844 863 882 660 640 876 1201 1393 1318 1228 1205 1142 1070 998 840 729 631 595 570 466 290 0 0 0 0 0 0 0 0 0 0 2 0 0 1 4 7 11 12 14 16 16 12 11 16 19 20 29 16 23
907 808 732 856 939 985 1021 1004 920 860 801 848 938 917 845 634 699 1070 1232 1306 1300 1277 1245 1131 1009 908 840 799 725 602 445 296 0 0 0 0 0 0 0 0 0 0 0 0 1 0 2 5 6 5 6 6 8 12 11 9 11 10 8 7 10 10
893 799 776 805 781 916 965 909 756 756 804 904 892 712 644 663 818 1241 1268 1201 1257 1213 1146 1006 920 864 806 707 589 463 341 155 0 0 0 0 0 0 0 0 0 0 1 1 1 2 2 4 4 2 2 3 2 3 4 5 3 2 3 2 3 6
905 890 799 824 768 878 906 879 800 872 960 990 826 610 598 683 956 1307 1440 1327 1208 1039 920 898 866 809 698 574 496 416 319 146 0 0 0 0 0 0 0 0 1 2 1 2 1 1 3 3 4 4 4 2 1 0 0 0 0 1 1 2 2 2
1014 953 902 886 830 915 967 932 909 1040 1102 1020 743 655 673 819 1074 1291 1489 1363 1048 870 808 791 807 724 616 555 484 429 326 166 0 0 0 0 0 0 2 4 4 4 4 2 3 3 2 2 1 2 1 0 0 0 0 0 0 0 0 0 2 2